DEFMA EDDG-EDDG

Flight info

Callsign DEFMA
Flight time N/A
Altitude 2000
Route EDDG/07 VFR
Aircraft DA40/L-S/L

Departure

Time 2026-05-08 19:40
Airport Münster Osnabrück Airport (EDDG)

Arrival

Time N/A
Airport Münster Osnabrück Airport (EDDG)
Time Latitude Longitude Altitude Speed Heading
2026-05-08 19:30 52.13123 7.68233 161 ft 0 kts 270°
2026-05-08 19:33 52.13123 7.68231 161 ft 1 kts 269°
2026-05-08 19:34 52.13148 7.68202 161 ft 7 kts
2026-05-08 19:34 52.13183 7.68267 161 ft 12 kts 71°
2026-05-08 19:34 52.13220 7.68340 161 ft 7 kts 343°
2026-05-08 19:34 52.13268 7.68314 161 ft 7 kts 340°
2026-05-08 19:35 52.13317 7.68286 161 ft 7 kts 340°
2026-05-08 19:35 52.13327 7.68280 161 ft 0 kts 343°
2026-05-08 19:38 52.13329 7.68279 161 ft 2 kts 342°
2026-05-08 19:38 52.13370 7.68255 162 ft 7 kts 339°
2026-05-08 19:39 52.13413 7.68245 162 ft 4 kts 61°
2026-05-08 19:39 52.13417 7.68263 162 ft 0 kts 73°
2026-05-08 19:39 52.13465 7.68488 162 ft 48 kts 71°
2026-05-08 19:39 52.13618 7.69204 214 ft 77 kts 70°
2026-05-08 19:40 52.13781 7.70014 447 ft 76 kts 70°
2026-05-08 19:40 52.13992 7.70830 675 ft 77 kts 50°
2026-05-08 19:40 52.14452 7.71355 893 ft 83 kts 24°
2026-05-08 19:40 52.15042 7.71518 1110 ft 88 kts
2026-05-08 19:41 52.15656 7.71300 1323 ft 94 kts 349°
2026-05-08 19:41 52.16290 7.71000 1536 ft 96 kts 349°
2026-05-08 19:41 52.16932 7.70686 1765 ft 97 kts 348°
2026-05-08 19:41 52.17589 7.70352 1977 ft 101 kts 347°
2026-05-08 19:42 52.18288 7.69972 2055 ft 111 kts 345°
2026-05-08 19:42 52.19029 7.69564 2114 ft 117 kts 345°
2026-05-08 19:42 52.19840 7.69123 2035 ft 128 kts 345°
2026-05-08 19:42 52.20698 7.68664 2003 ft 129 kts 345°
2026-05-08 19:43 52.21553 7.68207 2002 ft 129 kts 345°